DateTime,F1_A11,F1_S11,BsB_S11,BsG_S11,BsR_S11,BbsB_S11,BbsG_S11,BbsR_S11,BaB_A11,BaG_A11,BaR_A11,T_S11,U_S11,P_S11,T1_A11
2016-03-22T00:00:00Z,0000380,21000600,,,,,,,,,,25.3,00.0,0655.5,34.5
2016-03-22T00:01:00Z,0000380,21000600,,,,,,,,,,25.3,00.0,0655.5,34.5
2016-03-22T00:02:00Z,0000380,21000600,,,,,,,,,,25.3,00.0,0655.5,34.5
2016-03-22T00:03:00Z,0000380,61000600,,,,,,,,,,25.3,00.0,0655.5,34.5
2016-03-22T00:04:00Z,0000380,41000600,0000.25,0000.26,0000.20,0000.18,-000.34,0000.05,-000.12,-000.13,0000.10,25.4,00.0,0656.2,34.5
2016-03-22T00:05:00Z,0000380,01000600,-000.33,0000.04,0000.04,-000.56,-000.10,0000.03,0000.18,-000.04,-000.25,25.4,00.0,0656.3,34.5
2016-03-22T00:06:00Z,0000380,01000600,-000.61,-000.51,-000.42,-000.47,-000.06,-000.37,-000.10,0000.05,0000.33,25.4,00.0,0656.3,34.5
2016-03-22T00:07:00Z,0000380,01000600,-000.24,0000.38,0000.30,0000.02,0000.13,-000.76,0000.02,0000.04,-000.11,25.4,00.0,0656.3,34.5
2016-03-22T00:08:00Z,0000380,01000600,-000.66,-000.04,-000.23,-000.69,0000.14,-000.50,0000.06,0000.01,0000.03,25.4,00.0,0656.3,34.5
2016-03-22T00:09:00Z,0000380,01000600,-000.38,-000.11,0000.25,-000.51,-000.37,-000.19,-000.06,0000.03,0000.20,25.4,00.0,0656.3,34.5
2016-03-22T00:10:00Z,0000380,01000600,-000.94,-000.43,0000.16,0000.21,-000.38,-000.03,0000.12,-000.11,-000.38,25.3,00.0,0656.2,34.5
2016-03-22T00:11:00Z,0000380,01000600,-001.66,-000.36,-000.42,-000.39,-000.03,-000.22,0000.16,0000.29,0000.52,25.4,00.0,0656.2,34.5
2016-03-22T00:12:00Z,0000380,01000600,-000.04,-000.38,-000.19,-000.50,0000.06,-000.40,-000.11,-000.09,-000.01,25.4,00.0,0656.2,34.5
2016-03-22T00:13:00Z,0000380,01000600,-000.52,-000.49,0000.42,-000.80,-000.02,-000.18,-000.00,-000.01,-000.37,25.3,00.0,0656.2,34.5
2016-03-22T00:14:00Z,0000380,01000600,-000.81,0000.43,-000.05,0000.63,-000.06,0000.11,0000.06,0000.09,0000.07,25.3,00.0,0656.3,34.5
2016-03-22T00:15:00Z,0000380,01000600,0000.83,0000.36,0000.04,0000.18,0000.05,-000.22,-000.15,-000.04,0000.21,25.4,00.0,0656.2,34.6
2016-03-22T00:16:00Z,0000380,01000600,0001.14,0000.38,-000.09,-000.56,-000.11,-000.21,0000.13,-000.07,-000.09,25.4,00.0,0656.2,34.6
2016-03-22T00:17:00Z,0000380,01000600,0000.24,-000.34,-000.21,-000.18,0000.38,-000.18,0000.09,0000.06,0000.30,25.4,00.0,0656.2,34.6
2016-03-22T00:18:00Z,0000380,01000600,-000.76,0000.22,-000.09,-000.06,-000.02,-000.16,-000.06,-000.04,-000.23,25.4,00.0,0656.2,34.6
2016-03-22T00:19:00Z,0000380,01000600,-000.20,-000.25,0000.51,-000.19,0000.06,-000.06,-000.06,0000.21,-000.03,25.3,00.0,0656.2,34.6
2016-03-22T00:20:00Z,0000380,01000600,-000.17,-000.16,0000.46,-000.21,0000.03,-000.27,0000.02,-000.14,0000.04,25.4,00.0,0656.2,34.6
2016-03-22T00:21:00Z,0000380,01000600,0000.54,0000.04,0000.00,0000.47,0000.02,-000.29,0000.02,0000.02,-000.07,25.3,00.0,0656.2,34.6
2016-03-22T00:22:00Z,0000380,01000600,0000.32,0000.10,-000.34,0000.34,-000.10,-000.59,-000.02,0000.01,0000.28,25.4,00.0,0656.2,34.6
2016-03-22T00:23:00Z,0000380,01000600,0000.43,0000.02,-000.02,-000.50,-000.48,-000.51,0000.23,0000.16,-000.22,25.3,00.0,0656.2,34.6
2016-03-22T00:24:00Z,0000380,01000600,-000.96,0000.13,-000.35,-000.69,-000.19,-000.16,-000.09,-000.00,0000.20,25.3,00.0,0656.2,34.6
2016-03-22T00:25:00Z,0000380,01000600,0000.46,-000.43,-000.05,-000.51,-000.16,-000.10,-000.07,-000.27,0000.14,25.3,00.0,0656.2,34.6
2016-03-22T00:26:00Z,0000380,01000600,-000.37,0000.86,-000.02,-000.10,-000.24,-000.06,0000.02,0000.04,-000.48,25.3,00.0,0656.1,34.6
2016-03-22T00:27:00Z,0000380,01000600,0000.90,0000.34,-000.33,0000.39,0000.38,-000.03,-000.12,-000.18,-000.28,25.3,00.0,0656.1,34.6
2016-03-22T00:28:00Z,0000380,01000600,-000.30,0000.00,-000.38,-000.26,0000.11,-000.26,-000.06,-000.05,0000.11,25.3,00.0,0656.1,34.6
2016-03-22T00:29:00Z,0000380,01000600,0001.12,0000.67,-000.13,-000.29,0000.22,-000.59,0000.18,0000.03,-000.03,25.4,00.0,0656.2,34.6
2016-03-22T00:30:00Z,0000380,01000600,0000.93,0000.63,0000.09,-000.39,0000.22,-000.05,-000.23,0000.05,0000.20,25.4,00.0,0656.2,34.6
2016-03-22T00:31:00Z,0000380,01000600,0000.08,0000.20,0000.00,0000.42,0000.24,-000.31,0000.20,0000.19,0000.08,25.4,00.0,0656.2,34.6
2016-03-22T00:32:00Z,0000380,01000600,0000.47,0000.03,0000.16,0000.02,-000.11,-000.56,-000.03,-000.03,0000.09,25.4,00.0,0656.2,34.6
2016-03-22T00:33:00Z,0000380,01000600,0000.46,-000.06,0000.02,-000.42,0000.13,-000.29,0000.08,0000.13,-000.10,25.3,00.0,0656.2,34.6
2016-03-22T00:34:00Z,0000380,01000600,0000.14,0000.11,-000.19,-000.45,-000.02,-000.06,0000.14,0000.03,-000.09,25.4,00.0,0656.2,34.6
2016-03-22T00:35:00Z,0000380,01000600,0000.19,0000.32,0000.07,-000.10,-000.13,-000.35,0000.15,0000.09,0000.03,25.3,00.0,0656.3,34.6
2016-03-22T00:36:00Z,0000380,01000600,-000.12,-000.09,0000.28,-000.64,-000.06,-000.22,-000.17,-000.01,0000.41,25.3,00.0,0656.3,34.6
2016-03-22T00:37:00Z,0000380,01000600,0000.15,-000.13,-000.31,-000.06,-000.30,-000.24,0000.18,0000.14,-000.24,25.3,00.0,0656.3,34.6
2016-03-22T00:38:00Z,0000380,01000600,0000.58,0000.41,0000.15,-000.29,-000.10,-000.39,-000.12,-000.27,0000.18,25.3,00.0,0656.3,34.6
2016-03-22T00:39:00Z,0000380,01000600,-000.22,0000.85,-000.04,-000.22,0000.10,-000.10,0000.10,0000.15,-000.09,25.3,00.0,0656.3,34.6
2016-03-22T00:40:00Z,0000380,01000600,-000.62,0000.21,0000.17,0000.32,0000.05,0000.00,-000.05,0000.06,0000.17,25.3,00.0,0656.3,34.6
2016-03-22T00:41:00Z,0000380,01000600,0000.49,-000.14,0000.42,-000.18,0000.26,-000.22,-000.10,-000.13,-000.09,25.3,00.0,0656.3,34.6
2016-03-22T00:42:00Z,0000380,01000600,-000.26,0000.29,0000.42,-000.27,0000.50,0000.34,0000.09,-000.01,-000.13,25.3,00.0,0656.3,34.6
2016-03-22T00:43:00Z,0000380,01000600,-002.06,-000.35,0000.51,-000.34,0000.30,0000.03,0000.08,0000.17,0000.29,25.3,00.0,0656.3,34.6
2016-03-22T00:44:00Z,0000380,01000600,0000.28,0000.06,-000.27,-000.61,-000.42,-000.16,-000.15,-000.14,-000.15,25.3,00.0,0656.3,34.6
2016-03-22T00:45:00Z,0000380,01000600,-000.27,0000.17,-000.02,-000.30,-000.14,-000.22,0000.12,0000.06,0000.09,25.3,00.0,0656.3,34.5
2016-03-22T00:46:00Z,0000380,01000600,-000.96,0000.22,0000.29,-001.01,-000.03,-000.16,-000.14,-000.06,-000.22,25.3,00.0,0656.3,34.5
2016-03-22T00:47:00Z,0000380,01000600,-000.28,0000.26,0000.29,-000.40,-000.11,-000.55,0000.10,-000.06,0000.05,25.3,00.0,0656.2,34.5
2016-03-22T00:48:00Z,0000380,01000600,0001.71,0000.76,0000.18,-000.53,0000.03,-000.16,-000.10,-000.11,-000.16,25.3,00.0,0656.2,34.5
2016-03-22T00:49:00Z,0000380,01000600,0000.70,0000.12,-000.15,-000.34,-000.19,0000.13,0000.32,0000.27,0000.25,25.3,00.0,0656.2,34.5
2016-03-22T00:50:00Z,0000380,01000600,0000.50,0000.44,0000.02,-000.02,0000.08,-000.31,-000.04,0000.08,0000.27,25.3,00.0,0656.2,34.5
2016-03-22T00:51:00Z,0000380,01000600,0000.29,0000.40,0000.09,-000.21,0000.02,-000.59,-000.05,0000.06,-000.19,25.3,00.0,0656.2,34.5
2016-03-22T00:52:00Z,0000380,01000600,0000.02,0000.61,0000.22,0000.08,-000.08,0000.18,0000.10,-000.06,-000.14,25.3,00.0,0656.2,34.5
2016-03-22T00:53:00Z,0000380,01000600,0000.23,0000.07,0000.10,-000.39,0000.05,-000.24,-000.02,-000.08,0000.12,25.3,00.0,0656.2,34.5
2016-03-22T00:54:00Z,0000380,01000600,-000.36,0000.54,-000.10,-000.66,-000.02,0000.00,0000.06,0000.20,0000.23,25.3,00.0,0656.2,34.5
2016-03-22T00:55:00Z,0000380,01000600,-000.52,0000.14,-000.14,-000.55,0000.05,-000.37,-000.19,-000.16,-000.39,25.3,00.0,0656.3,34.5
2016-03-22T00:56:00Z,0000380,01000600,0000.63,0000.36,0000.57,-000.56,0000.06,-000.29,-000.02,0000.24,0000.23,25.3,00.0,0656.2,34.5
2016-03-22T00:57:00Z,0000380,41000600,,,,,,,,,,,,0656.2,34.5
2016-03-22T00:58:00Z,0000380,61000600,,,,,,,,,,25.2,00.0,0655.5,34.5
2016-03-22T00:59:00Z,0000380,21000600,,,,,,,,,,25.2,00.0,0655.4,34.5
2016-03-22T01:00:00Z,0000380,21000600,,,,,,,,,,25.2,00.0,0655.4,34.5
2016-03-22T01:01:00Z,0000380,21000600,,,,,,,,,,25.2,00.0,0655.4,34.5
2016-03-22T01:02:00Z,0000380,21000600,,,,,,,,,,25.2,00.0,0655.4,34.5
2016-03-22T01:03:00Z,0000380,61000600,,,,,,,,,,25.2,00.0,0655.4,34.5
2016-03-22T01:04:00Z,0000380,41000600,0000.75,0000.32,0000.32,0000.37,0000.16,0000.22,0000.02,-000.01,0000.08,25.3,00.0,0656.1,34.5
2016-03-22T01:05:00Z,0000380,01000600,0000.09,0000.27,0001.10,0000.11,0000.14,0000.31,-000.02,0000.09,0000.15,25.3,00.0,0656.2,34.5
2016-03-22T01:06:00Z,0000380,01000600,0000.98,-000.08,0000.84,-000.03,0000.34,-000.05,0000.08,-000.18,-000.15,25.3,00.0,0656.2,34.5
2016-03-22T01:07:00Z,0000380,01000600,-000.92,0000.61,0000.36,-000.37,0000.59,-000.08,0000.02,0000.15,-000.05,25.3,00.0,0656.1,34.5
2016-03-22T01:08:00Z,0000380,01000600,0000.60,0000.60,0000.88,-000.11,0000.11,0000.03,-000.09,-000.08,-000.06,25.3,00.0,0656.1,34.5
2016-03-22T01:09:00Z,0000380,01000600,0000.10,-000.58,-000.04,-000.63,0000.13,0000.11,0000.02,0000.01,0000.11,25.2,00.0,0656.1,34.5
2016-03-22T01:10:00Z,0000380,01000600,0000.09,-000.27,0000.11,0000.34,-000.35,-000.32,0000.17,0000.04,0000.14,25.3,00.0,0656.1,34.5
2016-03-22T01:11:00Z,0000380,01000600,0000.19,0000.47,0000.23,0000.47,0000.02,-000.39,-000.21,-000.10,-000.24,25.2,00.0,0656.1,34.5
2016-03-22T01:12:00Z,0000380,01000600,0000.10,0000.12,0000.10,0000.42,0000.43,0000.03,0000.01,0000.00,-000.03,25.2,00.0,0656.1,34.5
2016-03-22T01:13:00Z,0000380,01000600,-000.01,-000.34,0000.96,-000.02,-000.16,0000.08,0000.09,-000.02,-000.06,25.3,00.0,0656.1,34.5
2016-03-22T01:14:00Z,0000380,01000600,0000.01,0000.19,0000.85,-000.03,-000.24,0000.03,-000.13,0000.01,0000.05,25.3,00.0,0656.1,34.5
2016-03-22T01:15:00Z,0000380,01000600,0000.51,-000.06,0000.55,0000.22,0000.14,0000.31,0000.13,0000.12,0000.01,25.3,00.0,0656.1,34.5
2016-03-22T01:16:00Z,0000380,01000600,0000.58,0001.11,0000.04,-000.32,-000.14,0000.18,0000.02,-000.08,0000.02,25.3,00.0,0656.1,34.5
2016-03-22T01:17:00Z,0000380,01000600,-000.18,0000.46,0000.24,0000.08,-000.48,0000.21,0000.12,-000.08,-000.24,25.3,00.0,0656.1,34.5
2016-03-22T01:18:00Z,0000380,01000600,0000.71,0000.73,0000.59,0000.03,-000.34,-000.06,-000.24,0000.03,-000.03,25.3,00.0,0656.1,34.5
2016-03-22T01:19:00Z,0000380,01000600,0000.70,0000.04,0000.23,0000.22,0000.18,-000.10,0000.11,0000.15,0000.39,25.3,00.0,0656.1,34.5
2016-03-22T01:20:00Z,0000380,01000600,0001.38,0000.81,0000.69,0000.63,0000.19,0000.42,0000.05,0000.02,-000.07,25.3,00.0,0656.1,34.5
2016-03-22T01:21:00Z,0000380,01000600,0000.45,0000.16,0000.04,-000.19,0000.19,0000.11,0000.18,-000.06,0000.03,25.3,00.0,0656.0,34.5
2016-03-22T01:22:00Z,0000380,01000600,0000.37,0000.04,0000.53,0000.53,0000.35,-000.19,-000.15,-000.07,0000.01,25.3,00.0,0656.0,34.5
2016-03-22T01:23:00Z,0000380,01000600,0000.04,0000.53,-000.07,-000.05,-000.03,0000.06,0000.05,0000.21,0000.25,25.3,00.0,0656.0,34.5
2016-03-22T01:24:00Z,0000380,01000600,0000.99,0000.63,0000.30,-000.05,0000.26,-000.14,-000.02,0000.01,-000.01,25.3,00.0,0656.0,34.5
2016-03-22T01:25:00Z,0000380,01000600,0000.62,0000.53,0000.12,-000.06,-000.30,-000.06,0000.01,-000.05,-000.15,25.3,00.0,0656.0,34.5
2016-03-22T01:26:00Z,0000380,01000600,-001.03,0000.24,0000.28,-000.27,0000.34,0000.02,0000.05,-000.09,-000.28,25.3,00.0,0656.0,34.5
2016-03-22T01:27:00Z,0000380,01000600,0000.54,0000.55,0000.47,-000.50,-000.08,-000.19,0000.08,0000.09,0000.61,25.3,00.0,0656.0,34.5
2016-03-22T01:28:00Z,0000380,01000600,0000.37,-000.08,0000.23,-000.05,-000.05,0000.00,0000.01,-000.01,-000.27,25.3,00.0,0656.0,34.5
2016-03-22T01:29:00Z,0000380,01000600,0000.82,0000.09,0000.54,0000.35,0000.27,0000.00,-000.08,0000.06,0000.01,25.3,00.0,0656.0,34.5
2016-03-22T01:30:00Z,0000380,01000600,0000.33,0000.25,0000.23,0000.37,-000.11,-000.64,0000.14,0000.16,0000.20,25.3,00.0,0656.0,34.5
2016-03-22T01:31:00Z,0000380,01000600,-000.22,-000.40,0000.51,0000.13,0000.03,-000.03,0000.01,-000.01,-000.48,25.3,00.0,0656.0,34.5
2016-03-22T01:32:00Z,0000380,01000600,0000.42,-000.37,0000.21,0000.77,-000.03,0000.00,-000.08,-000.12,0000.42,25.3,00.0,0656.0,34.5
2016-03-22T01:33:00Z,0000380,01000600,-000.12,-000.04,-000.19,0000.16,0000.02,0000.03,0000.06,-000.03,-000.09,25.3,00.0,0656.0,34.5
2016-03-22T01:34:00Z,0000380,01000600,0000.06,-000.22,0000.25,0000.50,-000.14,-000.18,0000.04,0000.07,0000.09,25.3,00.0,0656.0,34.5
2016-03-22T01:35:00Z,0000380,01000600,0000.39,0000.66,0000.33,0000.13,-000.29,-000.08,-000.17,0000.07,-000.27,25.3,00.0,0656.0,34.5
2016-03-22T01:36:00Z,0000380,01000600,-000.16,-000.08,0000.00,-000.16,0000.00,-000.08,0000.30,0000.13,0000.38,25.3,00.0,0655.9,34.5
2016-03-22T01:37:00Z,0000380,01000600,0000.10,0000.23,0000.62,-000.51,0000.30,-000.19,-000.14,-000.02,-000.17,25.3,00.0,0655.9,34.5
2016-03-22T01:38:00Z,0000380,01000600,-000.01,-000.22,0000.78,0000.11,-000.24,-000.26,0000.24,0000.01,0000.35,25.3,00.0,0655.9,34.5
2016-03-22T01:39:00Z,0000380,01000600,0001.11,-000.08,0000.50,-000.13,-000.46,-000.02,-000.00,-000.14,-000.36,25.3,00.0,0655.9,34.5
2016-03-22T01:40:00Z,0000380,01000600,0000.61,-000.31,0000.53,-000.63,-000.16,0000.08,0000.09,0000.16,0000.35,25.3,00.0,0655.9,34.5
2016-03-22T01:41:00Z,0000380,01000600,0000.06,-000.16,0000.41,-000.22,-000.51,-000.26,-000.03,0000.14,0000.09,25.3,00.0,0655.8,34.5
2016-03-22T01:42:00Z,0000380,01000600,0000.16,-000.38,0000.10,0000.37,-000.02,0000.06,-000.01,-000.12,-000.37,25.3,00.0,0655.8,34.5
2016-03-22T01:43:00Z,0000380,01000600,0001.41,-000.24,-000.26,-000.55,-000.48,0000.11,0000.05,0000.04,0000.21,25.3,00.0,0655.8,34.5
2016-03-22T01:44:00Z,0000380,01000600,0000.04,-000.20,0000.28,0000.14,-000.06,-000.21,-000.18,-000.09,-000.22,25.3,00.0,0655.8,34.5
2016-03-22T01:45:00Z,0000380,01000600,0000.51,-000.18,-000.20,0000.24,0000.02,-000.32,0000.25,0000.16,0000.18,25.3,00.0,0655.8,34.5
2016-03-22T01:46:00Z,0000380,01000600,0000.96,-000.53,0000.13,-000.02,-000.02,-000.11,-000.01,0000.15,0000.01,25.3,00.0,0655.8,34.5
2016-03-22T01:47:00Z,0000380,01000600,-000.47,-000.35,0000.42,0000.39,-000.26,0000.16,-000.10,-000.12,-000.05,25.3,00.0,0655.8,34.5
2016-03-22T01:48:00Z,0000380,01000600,-000.41,-000.75,0000.29,0000.00,0000.05,0000.06,0000.07,-000.00,0000.06,25.3,00.0,0655.8,34.5
2016-03-22T01:49:00Z,0000380,01000600,-000.66,0000.33,0000.64,0000.27,-000.22,-000.06,-000.09,0000.21,-000.03,25.3,00.0,0655.7,34.5
2016-03-22T01:50:00Z,0000380,01000600,0001.26,0000.45,-000.26,0000.02,-000.11,0000.03,0000.15,-000.07,0000.15,25.3,00.0,0655.7,34.5
2016-03-22T01:51:00Z,0000380,01000600,0000.98,0000.65,0000.46,-000.21,-000.13,0000.00,0000.09,0000.01,0000.07,25.3,00.0,0655.7,34.5
2016-03-22T01:52:00Z,0000380,01000600,0000.58,0000.53,-000.14,0000.31,0000.08,0000.02,-000.10,-000.02,-000.34,25.3,00.0,0655.7,34.5
2016-03-22T01:53:00Z,0000380,01000600,0000.62,-000.11,-000.05,-000.40,-000.02,0000.39,0000.02,0000.07,0000.22,25.4,00.0,0655.7,34.5
2016-03-22T01:54:00Z,0000380,01000600,0000.20,-000.30,0000.25,0000.16,0000.00,0000.27,-000.00,-000.11,-000.17,25.4,00.0,0655.6,34.5
2016-03-22T01:55:00Z,0000380,01000600,0000.93,-000.15,0000.08,0000.48,-000.54,-000.39,-000.00,0000.16,0000.04,25.4,00.0,0655.7,34.5
2016-03-22T01:56:00Z,0000380,01000600,-000.58,-000.38,0000.23,-000.21,-000.27,0000.26,-000.02,-000.10,-000.02,25.4,00.0,0655.6,34.5
2016-03-22T01:57:00Z,0000380,41000600,,,,,,,,,,,,0655.4,34.5
2016-03-22T01:58:00Z,0000380,61000600,,,,,,,,,,25.3,00.0,0654.8,34.5
2016-03-22T01:59:00Z,0000380,21000600,,,,,,,,,,25.3,00.0,0654.8,34.5
2016-03-22T02:00:00Z,0000380,21000600,,,,,,,,,,25.3,00.0,0654.8,34.6
2016-03-22T02:01:00Z,0000380,21000600,,,,,,,,,,25.3,00.0,0654.8,34.6
2016-03-22T02:02:00Z,0000380,21000600,,,,,,,,,,25.3,00.0,0654.8,34.6
2016-03-22T02:03:00Z,0000380,61000600,,,,,,,,,,25.3,00.0,0654.8,34.6
2016-03-22T02:04:00Z,0000380,41000600,-000.09,-000.13,0000.46,-000.16,-000.06,0000.58,0000.09,0000.19,0000.25,25.4,00.0,0655.4,34.6
2016-03-22T02:05:00Z,0000380,01000600,0000.38,0000.92,-000.11,-000.14,0000.26,0000.14,-000.15,-000.01,-000.19,25.5,00.0,0655.4,34.6
2016-03-22T02:06:00Z,0000380,01000600,-000.36,0000.26,0000.46,0000.34,0000.06,-000.03,-000.01,0000.08,0000.06,25.5,00.0,0655.4,34.6
2016-03-22T02:07:00Z,0000380,01000600,-001.24,-000.25,0000.49,0000.02,-000.56,0000.45,0000.12,-000.11,0000.00,25.5,00.0,0655.4,34.6
2016-03-22T02:08:00Z,0000380,01000600,0000.08,-000.11,-000.23,-000.50,0000.06,0000.11,0000.10,0000.18,0000.27,25.5,00.0,0655.3,34.6
2016-03-22T02:09:00Z,0000380,01000600,-000.57,-000.13,0000.48,-000.88,0000.03,0000.23,-000.03,-000.07,-000.24,25.5,00.0,0655.3,34.6
2016-03-22T02:10:00Z,0000380,01000600,0001.63,0000.00,0000.72,-001.01,0000.18,0000.16,0000.09,0000.21,-000.04,25.5,00.0,0655.3,34.6
2016-03-22T02:11:00Z,0000380,01000600,0000.30,-000.06,-000.06,-000.19,0000.62,-000.08,0000.09,-000.11,0000.13,25.5,00.0,0655.3,34.6
2016-03-22T02:12:00Z,0000380,01000600,-000.05,0000.42,0000.74,-000.58,0000.18,0000.37,-000.14,0000.09,0000.03,25.5,00.0,0655.2,34.6
2016-03-22T02:13:00Z,0000380,01000600,-000.09,0000.26,0000.28,-000.05,0000.45,-000.03,0000.01,-000.04,-000.16,25.5,00.0,0655.2,34.6
2016-03-22T02:14:00Z,0000380,01000600,-000.73,0000.15,0000.08,-000.03,0000.21,-000.02,0000.08,-000.23,0000.01,25.5,00.0,0655.1,34.6
2016-03-22T02:15:00Z,0000380,01000600,-000.95,0000.40,0001.12,-000.10,0000.13,0000.43,-000.21,0000.17,0000.27,25.5,00.0,0655.1,34.6
2016-03-22T02:16:00Z,0000380,01000600,-000.47,0000.09,0000.08,-000.55,0000.02,0000.26,0000.17,-000.05,-000.36,25.5,00.0,0655.0,34.6
2016-03-22T02:17:00Z,0000380,01000600,-000.79,-000.26,0000.84,-000.19,-000.14,0000.03,-000.08,-000.03,0000.16,25.5,00.0,0655.0,34.6
2016-03-22T02:18:00Z,0000380,01000600,-000.67,-000.47,0000.46,-000.02,-000.10,0000.29,0000.07,0000.16,0000.39,25.5,00.0,0655.0,34.6
2016-03-22T02:19:00Z,0000380,01000600,-000.50,-001.11,-000.30,-000.43,0000.27,0000.21,0000.14,-000.06,-000.16,25.5,00.0,0654.9,34.6
2016-03-22T02:20:00Z,0000380,01000600,0000.80,0000.15,-000.11,-000.39,-000.16,0000.52,0000.04,0000.08,-000.29,25.5,00.0,0654.9,34.6
2016-03-22T02:21:00Z,0000380,01000600,-000.87,0000.42,0000.28,-000.10,0000.14,0000.08,0000.02,0000.07,0000.18,25.5,00.0,0654.8,34.6
2016-03-22T02:22:00Z,0000380,01000600,-001.02,-000.09,-000.05,-000.74,-000.43,0000.53,-000.07,0000.07,0000.04,25.5,00.0,0654.8,34.6
2016-03-22T02:23:00Z,0000380,01000600,-000.59,0000.49,0000.25,0000.24,0000.19,0000.50,-000.04,-000.08,-000.04,25.5,00.0,0654.7,34.6
2016-03-22T02:24:00Z,0000380,01000600,0000.85,0000.42,0000.35,-000.63,0000.11,0000.31,0000.18,-000.03,0000.16,25.5,00.0,0654.7,34.6
2016-03-22T02:25:00Z,0000380,01000600,-000.38,-000.22,0000.02,-000.50,0000.10,-000.06,-000.00,0000.11,-000.30,25.5,00.0,0654.6,34.6
2016-03-22T02:26:00Z,0000380,01000600,0000.16,0000.31,-000.16,-000.52,0000.38,-000.06,-000.13,-000.10,-000.02,25.5,00.0,0654.6,34.6
2016-03-22T02:27:00Z,0000380,01000600,0001.13,0000.30,0000.49,-000.19,-000.34,0000.05,0000.19,0000.06,0000.18,25.5,00.0,0654.5,34.6
2016-03-22T02:28:00Z,0000380,01000600,-000.96,0001.19,0000.45,-000.26,-000.14,0000.45,-000.02,-000.02,-000.14,25.5,00.0,0654.5,34.6
2016-03-22T02:29:00Z,0000380,01000600,-000.18,-000.04,0000.42,-000.31,-000.06,0000.90,0000.03,0000.00,-000.00,25.5,00.0,0654.5,34.6
2016-03-22T02:30:00Z,0000380,01000600,-000.16,0000.63,-000.02,-000.29,0000.18,0000.31,0000.02,0000.16,0000.13,25.5,00.0,0654.4,34.6
2016-03-22T02:31:00Z,0000380,01000600,-000.64,-000.02,0000.18,-000.29,0000.06,0000.32,0000.04,-000.14,0000.18,25.5,00.0,0654.4,34.6
2016-03-22T02:32:00Z,0000380,01000600,-000.60,0000.34,0000.61,-000.10,0000.00,0000.15,0000.05,0000.20,0000.27,25.5,00.0,0654.3,34.6
2016-03-22T02:33:00Z,0000380,01000600,-001.14,0000.69,0000.13,0000.19,-000.21,-000.08,0000.04,-000.06,-000.16,25.5,00.0,0654.3,34.6
2016-03-22T02:34:00Z,0000380,01000600,-000.66,-000.70,0000.27,-000.81,0000.11,0000.53,-000.07,-000.10,-000.39,25.5,00.0,0654.3,34.6
2016-03-22T02:35:00Z,0000380,01000600,-000.59,-000.96,0000.04,-000.26,0000.18,-000.10,0000.02,-000.01,0000.14,25.5,00.0,0654.3,34.6
2016-03-22T02:36:00Z,0000380,01000600,-000.72,-000.09,0000.11,-000.19,0000.11,0000.13,0000.13,0000.16,0000.19,25.5,00.0,0654.3,34.6
2016-03-22T02:37:00Z,0000380,01000600,0000.63,-000.27,-000.14,-000.52,0000.29,0000.16,-000.17,-000.27,-000.18,25.5,00.0,0654.3,34.6
2016-03-22T02:38:00Z,0000380,01000600,0000.09,0000.16,0000.50,-000.43,0000.18,0000.56,0000.13,0000.24,0000.15,25.5,00.0,0654.3,34.6
2016-03-22T02:39:00Z,0000380,01000600,-000.43,-000.15,-000.12,0000.16,0000.66,0000.63,0000.12,-000.08,0000.06,25.5,00.0,0654.3,34.6
2016-03-22T02:40:00Z,0000380,01000600,0000.41,-000.18,-000.20,-000.71,0000.32,0000.18,-000.07,0000.07,-000.28,25.5,00.0,0654.3,34.6
2016-03-22T02:41:00Z,0000380,01000600,0000.71,-000.29,0000.20,-000.85,-000.16,-000.02,0000.00,-000.09,0000.10,25.5,00.0,0654.3,34.6
2016-03-22T02:42:00Z,0000380,01000600,-000.82,0001.07,0000.44,-001.16,0000.18,0000.63,0000.04,0000.14,0000.06,25.5,00.0,0654.3,34.6
2016-03-22T02:43:00Z,0000380,01000600,-000.34,-000.13,0000.27,0000.18,-000.06,0000.13,-000.02,0000.04,-000.04,25.5,00.0,0654.2,34.6
2016-03-22T02:44:00Z,0000380,01000600,-000.37,0000.51,0000.00,-000.06,-000.18,-000.06,-000.09,-000.08,-000.10,25.5,00.0,0654.2,34.6
2016-03-22T02:45:00Z,0000380,01000600,0000.99,0000.71,0000.03,-000.05,0000.08,0000.24,0000.08,-000.13,-000.15,25.5,00.0,0654.2,34.5
2016-03-22T02:46:00Z,0000380,01000600,-000.21,-000.64,0000.65,0000.03,0000.03,0000.63,-000.03,0000.05,-000.09,25.5,00.0,0654.2,34.5
2016-03-22T02:47:00Z,0000380,01000600,-001.44,0000.11,0000.33,-000.06,0000.32,0000.15,0000.11,0000.08,0000.27,25.5,00.0,0654.2,34.5
2016-03-22T02:48:00Z,0000380,01000600,0000.54,0000.80,0000.20,-000.37,0000.18,0000.16,-000.12,-000.09,0000.13,25.5,00.0,0654.2,34.5
2016-03-22T02:49:00Z,0000380,01000600,-000.15,-000.39,0000.14,-000.42,0000.14,0000.45,0000.01,-000.11,-000.10,25.5,00.0,0654.1,34.5
2016-03-22T02:50:00Z,0000380,01000600,0000.72,0000.28,0000.06,-000.55,0000.88,-000.15,0000.11,0000.11,0000.37,25.5,00.0,0654.1,34.5
2016-03-22T02:51:00Z,0000380,01000600,0000.02,0000.46,0000.16,-000.53,0000.83,0000.13,0000.04,0000.27,-000.19,25.5,00.0,0654.1,34.5
2016-03-22T02:52:00Z,0000380,01000600,0000.03,0000.76,0000.12,-000.81,0000.13,0000.16,0000.03,-000.10,-000.21,25.5,00.0,0654.1,34.5
2016-03-22T02:53:00Z,0000380,01000600,-000.03,0000.04,0000.14,-000.10,-000.18,0000.58,-000.03,-000.14,0000.11,25.5,00.0,0654.1,34.5
2016-03-22T02:54:00Z,0000380,01000600,-000.93,-000.18,0000.11,-001.37,0000.75,0000.13,-000.14,0000.09,0000.05,25.5,00.0,0654.1,34.5
2016-03-22T02:55:00Z,0000380,01000600,0000.13,-000.89,0000.27,-000.29,0000.64,-000.27,0000.24,-000.07,-000.15,25.5,00.0,0654.1,34.5
2016-03-22T02:56:00Z,0000380,01000600,0000.36,0000.49,0001.10,0000.26,0000.18,0000.56,-000.01,0000.18,0000.25,25.5,00.0,0654.1,34.5
2016-03-22T02:57:00Z,0000380,41000600,,,,,,,,,,,,0654.0,34.5
2016-03-22T02:58:00Z,0000380,61000600,,,,,,,,,,25.5,00.0,0653.3,34.5
2016-03-22T02:59:00Z,0000380,21000600,,,,,,,,,,25.5,00.0,0653.2,34.5
2016-03-22T03:00:00Z,0000380,21000600,,,,,,,,,,25.5,00.0,0653.2,34.6
2016-03-22T03:01:00Z,0000380,21000600,,,,,,,,,,25.5,00.0,0653.2,34.6
2016-03-22T03:02:00Z,0000380,21000600,,,,,,,,,,25.5,00.0,0653.2,34.6
2016-03-22T03:03:00Z,0000380,61000600,,,,,,,,,,25.5,00.0,0653.2,34.6
2016-03-22T03:04:00Z,0000380,41000600,0000.13,-000.16,-000.21,-000.03,-000.11,-000.13,0000.16,0000.06,-000.05,25.6,00.0,0654.0,34.6
2016-03-22T03:05:00Z,0000380,01000600,-000.07,-000.47,0000.34,0000.16,0000.00,-000.08,0000.19,-000.14,0000.07,25.6,00.0,0654.1,34.6
2016-03-22T03:06:00Z,0000380,01000600,-000.89,0000.09,-000.21,-000.15,-000.35,0000.02,-000.20,0000.11,0000.05,25.6,00.0,0654.1,34.6
2016-03-22T03:07:00Z,0000380,01000600,-000.07,-000.13,0000.12,0000.27,0000.11,0000.13,0000.10,-000.05,0000.06,25.6,00.0,0654.1,34.6
2016-03-22T03:08:00Z,0000380,01000600,0001.43,-000.48,0000.31,0000.05,-000.11,-000.06,0000.00,-000.12,-000.04,25.6,00.0,0654.1,34.6
2016-03-22T03:09:00Z,0000380,01000600,-001.28,-000.04,0000.28,-000.47,0000.06,0000.42,-000.15,0000.17,0000.24,25.6,00.0,0654.1,34.6
2016-03-22T03:10:00Z,0000380,01000600,-000.89,0000.15,0000.20,-000.10,-000.21,-000.19,0000.06,-000.11,-000.26,25.6,00.0,0654.1,34.6
2016-03-22T03:11:00Z,0000380,01000600,-000.87,-000.11,0000.69,0000.39,0000.06,0000.50,0000.17,0000.10,0000.07,25.6,00.0,0654.1,34.6
2016-03-22T03:12:00Z,0000380,01000600,-000.74,-000.55,0000.00,0000.31,-000.05,0000.11,-000.04,0000.03,-000.19,25.6,00.0,0654.1,34.6